Location: ???????
(55.3754°N, 39.3545°E)
Time: 17:10:26
(UTC+00:00)

Cosmos 2221 Rocket - Pass Details

Date: 14 April 2026
Orbit: 615 x 641 km, 82.5° (Epoch: 16 May)

Event Time Altitude Azimuth Distance (km) Brightness Sun altitude
Rises 19:08:13 0° 345° (NNW) 2,901 8.3 -19.2°
Reaches altitude 10° 19:10:28 10° 342° (NNW) 1,991 7.3 -19.4°
Maximum altitude 19:14:48 59° 264° (W) 717 3.9 -19.7°
Enters shadow 19:16:31 34° 199° (SSW) 1,028 4.3 -19.9°
